Regional Weather Roundup
Issued by NWS

Home | Current Version | Previous Version | Text Only | Print | Product List | Glossary Off
Versions: 1 2 3 4 5 6 7 8 9 10 11 12 13 14 15 16 17 18 19 20 21 22 23 24 25 26 27 28 29 30 31 32 33 34 35 36 37 38 39 40 41 42 43 44 45 46 47 48 49 50

489
ASUS43 KDMX 251706
RWRIA

WEATHER ROUNDUP FOR IOWA
NATIONAL WEATHER SERVICE DES MOINES IA
1200 PM CDT SAT MAR 25 2017

NOTE: "FAIR" INDICATES FEW OR NO CLOUDS BELOW 12,000 FEET WITH NO
SIGNIFICANT WEATHER AND/OR OBSTRUCTIONS TO VISIBILITY.

* - THESE STATIONS ARE NOT NWS STATIONS...THUS NOT UNDER NWS
QUALITY CONTROL.  THEY ALSO DO NOT REPORT WEATHER SUCH
AS PRECIPITATION OR FOG.

IAZ001>003-012>014-020>022-031>034-043>046-251800-
   NORTHWEST IOWA

CITY           SKY/WX    TMP DP  RH WIND       PRES   REMARKS
CARROLL *      LGT RAIN  39  39 100 NE17G23   29.98F WCI  30
CHEROKEE *     CLOUDY    38  37  97 NE10      30.04F FOG     WCI  31
LE MARS *      CLOUDY    39  37  93 NE13      30.06F WCI  32
ORANGE CITY *  CLOUDY    37  37 100 NE9G18    30.05F FOG     WCI  31
SHELDON *      CLOUDY    39  39 100 NE20      30.05F WCI  30
SIOUX CITY     CLOUDY    39  37  92 NE13G21   30.04  WCI  31
SPENCER        CLOUDY    38  35  89 NE15      30.06S WCI  29
STORM LAKE *   MIX PCPN  37  37 100 NE22      30.02S VSB 3/4 WCI  27
$$

IAZ055>058-069>071-079>083-090>094-251800-
   SOUTHWEST IOWA

CITY           SKY/WX    TMP DP  RH WIND       PRES   REMARKS
ATLANTIC *     RAIN      41  39  93 NE17      29.95S
AUDUBON *      RAIN      41  37  87 NE16G23   29.96F
CLARINDA *     PTSUNNY   43  41  93 MISG      29.96S FOG
COUNCIL BLFS *   N/A     41  41 100 NE16      29.96F
CRESTON *      LGT RAIN  39  39 100 NE16      29.94S WCI  30
HARLAN  *      LGT RAIN  41  41 100 NE16G23   29.99F
LAMONI         CLOUDY    45  42  89 N17       29.90F
RED OAK *      LGT RAIN  43  41  93 NE14G23   29.95S
SHENANDOAH *   LGT RAIN  43  41  93 NE15G22   29.95S
$$

IAZ047>049-059>061-072>074-084-251800-
   CENTRAL IOWA

CITY           SKY/WX    TMP DP  RH WIND       PRES   REMARKS
AMES           RAIN      39  39 100 NE16      29.97F FOG     WCI  30
ANKENY *       LGT RAIN  39  37  93 NE16G23   29.97S WCI  30
BOONE *        LGT RAIN  37  37 100 NE17G24   29.96F WCI  28
CHARITON *     PTSUNNY   41  41 100 NE12G18   29.92R FOG
DES MOINES     LGT RAIN  41  38  89 NE17      29.95S FOG
GRINNELL*      LGT RAIN  39  38  96 NE15G25   29.96R WCI  30
MARSHALLTOWN   LGT RAIN  39  38  96 NE18      29.96F FOG     WCI  30
NEWTON *       CLOUDY    39  37  93 NE15      29.94S FOG     WCI  31
PELLA *        DRIZZLE   40  40  97 NE8G16    29.95R
PERRY *        RAIN      39  38  97 NE15G22   29.97F WCI  31
$$

IAZ004>006-015-016-023>025-035-036-251800-
   NORTH CENTRAL IOWA

CITY           SKY/WX    TMP DP  RH WIND       PRES   REMARKS
ALGONA *       CLOUDY    39  39 100 NE16G24   30.03F FOG     WCI  30
CLARION *      CLOUDY    37  37 100 NE22      30.02S FOG     WCI  27
ESTHERVILLE    CLOUDY    37  36  96 NE18      30.06S WCI  27
FORT DODGE *   CLOUDY    37  34  87 NE12G18   30.02F WCI  30
MASON CITY     CLOUDY    37  35  92 NE20      30.05S FOG     WCI  27
FOREST CITY *  CLOUDY    37  36  93 NE14G21   30.04F WCI  29
WEBSTER CITY * RAIN      37  37 100 NE16      29.98F WCI  28
IOWA FALLS *   LGT RAIN  38  37  94 NE15G22   30.00F WCI  30
$$

IAZ007>011-017>019-026>030-037>042-050>054-066-251800-
   NORTHEAST IOWA

CITY           SKY/WX    TMP DP  RH WIND       PRES   REMARKS
CEDAR RAPIDS   LGT RAIN  40  40 100 NE14      29.94R FOG     WCI  32
CHARLES CITY * CLOUDY    39  39 100 NE17G25   30.03F WCI  30
CLINTON *      LGT RAIN  42  41  96 E23       29.95R FOG
DECORAH *      CLOUDY    37  36  93 NE9G18    30.04F WCI  31
DUBUQUE        LGT RAIN  39  38  96 NE21G32   29.97S FOG     WCI  29
MONTICELLO *   RAIN      39  39 100 NE16G28   29.94F WCI  30
OELWEIN *      LGT RAIN  39  39 100 NE17G24   29.99S WCI  30
WATERLOO       RAIN      38  36  92 NE14      30.00F FOG     WCI  30
$$

IAZ064-065-067-068-078-251800-
   EAST CENTRAL IOWA

CITY           SKY/WX    TMP DP  RH WIND       PRES   REMARKS
DAVENPORT      CLOUDY    42  41  96 E17       29.94S FOG
IOWA CITY      LGT RAIN  43  40  89 NE12      29.95S FOG
MUSCATINE *    CLOUDY    45  43  93 NE9       29.93S FOG
QUAD CITIES    CLOUDY    45  42  89 E14       29.93S FOG
$$

IAZ062-063-075>077-085>089-095>099-251800-
   SOUTHEAST IOWA

CITY           SKY/WX    TMP DP  RH WIND       PRES   REMARKS
BURLINGTON     CLOUDY    47  32  56 NE8       29.88S
FAIRFIELD *    CLOUDY    45  43  93 NE15      29.91R FOG
FORT MADISON * CLOUDY    48  48 100 NE6       29.89S FOG
KEOKUK *       CLOUDY    50  48  93 NE7       29.87S
OSKALOOSA *    LGT RAIN  42  41  97 NE12      29.93R
OTTUMWA        LGT RAIN  44  43  96 NE13      29.91S FOG
WASHINGTON *   CLOUDY    43  43 100 NE18      29.92S
$$

ABBREVIATIONS USED IN REMARKS
   TC - TEMPERATURES IN CELSIUS
  WCI - WIND CHILL INDEX
   HX - HEAT INDEX
  VSB - VISIBILITY
$$





USA.gov is the U.S. government's official web portal to all federal, state and local government web resources and services.